GW1678 Weather Reports


time (UTC)temp
C
wind
direction
speed
KPH
gust
KPH
rain 1hr
cm
rain 24hr
cm
rain mn
cm
humidity
%
barometer
mb
20260507115140 6 256 6.4 9.7 0.00 0.00 0.00 84 1014.1
20260507114636 6 85 1.6 4.8 0.00 0.00 0.00 84 1014.1
20260507114134 6 95 3.2 4.8 0.00 0.00 0.00 85 1014.0
20260507113631 6 104 8.0 12.9 0.00 0.00 0.00 85 1013.9
20260507113128 6 243 4.8 8.0 0.00 0.00 0.00 85 1014.0
20260507112626 6 254 4.8 9.7 0.00 0.00 0.00 85 1014.1
20260507112122 6 251 8.0 9.7 0.00 0.00 0.00 85 1014.0
20260507111620 6 88 0.0 3.2 0.00 0.00 0.00 85 1014.0
20260507111116 6 192 6.4 9.7 0.00 0.00 0.00 85 1014.2
20260507110612 6 269 8.0 9.7 0.00 0.00 0.00 85 1013.9
20260507110108 6 182 3.2 9.7 0.00 0.00 0.00 85 1014.0
20260507105605 6 100 4.8 9.7 0.00 0.00 0.00 85 1013.9
20260507105056 6 102 3.2 8.0 0.00 0.00 0.00 85 1014.0
20260507104554 6 296 4.8 9.7 0.00 0.00 0.00 85 1013.9
20260507104050 6 102 1.6 9.7 0.00 0.00 0.00 85 1013.9
20260507103546 6 253 4.8 11.3 0.00 0.00 0.00 85 1014.1
20260507103043 6 107 3.2 9.7 0.00 0.00 0.00 85 1014.0
20260507102539 6 74 3.2 11.3 0.00 0.00 0.00 85 1014.3
20260507102036 6 107 3.2 9.7 0.00 0.00 0.00 84 1014.3
20260507101531 6 139 4.8 11.3 0.00 0.00 0.00 84 1014.3
20260507101028 7 110 3.2 11.3 0.00 0.00 0.00 84 1014.2
20260507100525 7 239 6.4 9.7 0.00 0.00 0.00 84 1014.4
20260507100023 6 126 1.6 9.7 0.00 0.00 0.00 84 1014.5
20260507095521 7 151 4.8 8.0 0.00 0.00 0.00 84 1014.6
20260507095017 7 169 4.8 9.7 0.00 0.00 0.00 84 1014.4
20260507094514 7 281 4.8 11.3 0.00 0.00 0.00 84 1014.5
20260507094011 7 247 9.7 11.3 0.00 0.00 0.00 84 1014.7
20260507093508 7 88 4.8 8.0 0.00 0.00 0.00 83 1014.5
20260507093007 7 26 4.8 9.7 0.00 0.00 0.00 83 1014.4
20260507092503 7 142 4.8 9.7 0.00 0.00 0.00 83 1014.6
20260507091959 7 260 8.0 9.7 0.00 0.00 0.00 82 1014.7
20260507091456 7 105 3.2 8.0 0.00 0.00 0.00 82 1014.6
20260507090952 7 87 3.2 14.5 0.00 0.00 0.00 81 1014.7
20260507090448 7 340 4.8 8.0 0.00 0.00 0.00 81 1014.7
20260507085945 7 80 3.2 8.0 0.00 0.00 0.00 81 1014.8
20260507085442 7 127 1.6 11.3 0.00 0.00 0.00 81 1014.9
20260507084939 7 69 1.6 8.0 0.00 0.00 0.00 80 1014.8
20260507084436 7 115 3.2 8.0 0.00 0.00 0.00 80 1014.9
20260507083933 7 168 6.4 8.0 0.00 0.00 0.00 80 1014.7
20260507083429 7 280 6.4 8.0 0.00 0.00 0.00 80 1014.9
20260507082925 7 174 3.2 4.8 0.00 0.00 0.00 80 1015.0
20260507082421 7 70 1.6 3.2 0.00 0.00 0.00 80 1014.9
20260507081918 7 211 4.8 4.8 0.00 0.00 0.00 79 1015.1
20260507081414 7 205 4.8 8.0 0.00 0.00 0.00 79 1015.2
20260507080911 7 115 3.2 9.7 0.00 0.00 0.00 79 1015.1
20260507080408 7 111 3.2 8.0 0.00 0.00 0.00 79 1015.1
20260507075903 7 83 3.2 8.0 0.00 0.00 0.00 78 1015.1
20260507075359 7 60 3.2 4.8 0.00 0.00 0.00 78 1015.3
20260507074856 7 100 1.6 4.8 0.00 0.00 0.00 77 1015.2
20260507074353 7 61 4.8 9.7 0.00 0.00 0.00 77 1015.0
20260507073850 7 99 3.2 4.8 0.00 0.00 0.00 76 1015.1
20260507073347 7 189 4.8 8.0 0.00 0.00 0.00 76 1015.3
20260507072844 7 84 0.0 3.2 0.00 0.00 0.00 76 1015.2
20260507072341 8 91 1.6 4.8 0.00 0.00 0.00 76 1015.3
20260507071839 8 113 4.8 9.7 0.00 0.00 0.00 75 1015.5
20260507071336 8 63 1.6 4.8 0.00 0.00 0.00 75 1015.4
20260507070832 8 44 1.6 4.8 0.00 0.00 0.00 74 1015.6
20260507070329 8 201 4.8 8.0 0.00 0.00 0.00 74 1015.5
20260507065826 8 125 4.8 8.0 0.00 0.00 0.00 74 1015.7
20260507065323 8 98 3.2 9.7 0.00 0.00 0.00 74 1015.8
20260507064820 8 180 6.4 9.7 0.00 0.00 0.00 74 1015.8
20260507064318 8 122 4.8 9.7 0.00 0.00 0.00 74 1015.8
20260507063816 8 103 3.2 8.0 0.00 0.00 0.00 74 1016.0
20260507063313 8 22 4.8 4.8 0.00 0.00 0.00 73 1015.9
20260507062809 8 110 3.2 3.2 0.00 0.00 0.00 73 1016.1
20260507062306 8 98 4.8 8.0 0.00 0.00 0.00 73 1016.0
20260507061804 8 106 4.8 9.7 0.00 0.00 0.00 72 1016.0
20260507061302 8 149 4.8 8.0 0.00 0.00 0.00 72 1016.0
20260507060800 8 84 1.6 4.8 0.00 0.00 0.00 72 1016.1
20260507060256 8 234 4.8 12.9 0.00 0.00 0.00 71 1016.0
20260507055753 8 193 6.4 9.7 0.00 0.00 0.00 70 1016.2
20260507055248 8 132 4.8 9.7 0.00 0.00 0.00 70 1016.1
20260507054745 9 170 8.0 9.7 0.00 0.00 0.00 69 1016.2
20260507054242 9 88 3.2 11.3 0.00 0.00 0.00 69 1016.1
20260507053739 9 190 3.2 9.7 0.00 0.00 0.00 68 1016.1
20260507053236 9 91 1.6 8.0 0.00 0.00 0.00 68 1016.0
20260507052735 9 87 3.2 9.7 0.00 0.00 0.00 67 1016.1
20260507052231 9 236 6.4 9.7 0.00 0.00 0.00 67 1016.2
20260507051729 9 191 4.8 8.0 0.00 0.00 0.00 66 1016.1
20260507051226 9 121 1.6 4.8 0.00 0.00 0.00 66 1016.1
20260507050722 9 217 4.8 11.3 0.00 0.00 0.00 65 1016.2
20260507050220 9 186 4.8 8.0 0.00 0.00 0.00 65 1016.2
20260507045716 9 132 4.8 8.0 0.00 0.00 0.00 64 1016.1
20260507045212 9 191 6.4 9.7 0.00 0.00 0.00 63 1016.4
20260507044710 10 95 3.2 4.8 0.00 0.00 0.00 62 1016.4
20260507044206 10 99 1.6 4.8 0.00 0.00 0.00 62 1016.4
20260507043703 10 114 4.8 8.0 0.00 0.00 0.00 61 1016.2
20260507043200 10 136 4.8 8.0 0.00 0.00 0.00 60 1016.4
20260507042656 10 83 0.0 3.2 0.00 0.00 0.00 59 1016.5
20260507042151 10 181 3.2 8.0 0.00 0.00 0.00 58 1016.4
20260507041648 10 114 0.0 3.2 0.00 0.00 0.00 57 1016.4
20260507041144 10 44 0.0 4.8 0.00 0.00 0.00 56 1016.2
20260507040642 10 102 0.0 1.6 0.00 0.00 0.00 55 1016.4
20260507040138 10 98 1.6 12.9 0.00 0.00 0.00 53 1016.4
20260507035634 10 113 3.2 9.7 0.00 0.00 0.00 52 1016.2
20260507035130 10 102 1.6 9.7 0.00 0.00 0.00 51 1016.2
20260507034627 10 261 4.8 8.0 0.00 0.00 0.00 49 1016.4
20260507034125 10 149 4.8 4.8 0.00 0.00 0.00 49 1016.4
20260507033623 11 92 0.0 1.6 0.00 0.00 0.00 48 1016.4
20260507033120 11 97 0.0 3.2 0.00 0.00 0.00 46 1016.2
20260507032617 11 117 0.0 0.0 0.00 0.00 0.00 45 1016.2
20260507032113 11 87 1.6 4.8 0.00 0.00 0.00 44 1016.6
20260507031610 11 132 4.8 8.0 0.00 0.00 0.00 43 1016.4
20260507031106 11 82 0.0 0.0 0.00 0.00 0.00 43 1016.2
20260507030603 11 94 0.0 0.0 0.00 0.00 0.00 43 1016.1
20260507030101 11 90 0.0 0.0 0.00 0.00 0.00 42 1016.0
20260507025558 11 85 0.0 1.6 0.00 0.00 0.00 44 1016.2
20260507025055 11 100 0.0 1.6 0.00 0.00 0.00 43 1016.0
20260507024553 11 92 0.0 0.0 0.00 0.00 0.00 43 1016.0
20260507024050 11 88 0.0 1.6 0.00 0.00 0.00 44 1016.1
20260507023545 11 93 0.0 0.0 0.00 0.00 0.00 44 1015.9
20260507023043 11 92 0.0 0.0 0.00 0.00 0.00 45 1015.8
20260507022540 11 90 0.0 0.0 0.00 0.00 0.00 46 1015.9
20260507022035 11 93 0.0 0.0 0.00 0.00 0.00 44 1015.7
20260507021531 12 93 0.0 0.0 0.00 0.00 0.00 45 1015.6
20260507021028 12 95 0.0 0.0 0.00 0.00 0.00 46 1015.8
20260507020525 12 92 0.0 0.0 0.00 0.00 0.00 42 1015.5
20260507020022 12 92 0.0 0.0 0.00 0.00 0.00 41 1015.5
20260507015520 12 91 0.0 0.0 0.00 0.00 0.00 39 1015.5
20260507015018 12 90 0.0 0.0 0.00 0.00 0.00 39 1015.5
20260507014514 12 98 0.0 0.0 0.00 0.00 0.00 38 1015.6
20260507014010 13 92 0.0 0.0 0.00 0.00 0.00 39 1015.5
20260507013506 13 93 0.0 0.0 0.00 0.00 0.00 37 1015.6
20260507013004 13 115 0.0 0.0 0.00 0.00 0.00 37 1015.5
20260507012501 13 109 0.0 0.0 0.00 0.00 0.00 37 1015.5
20260507011957 13 96 0.0 0.0 0.00 0.00 0.00 36 1015.5
20260507011454 13 92 0.0 0.0 0.00 0.00 0.00 36 1015.4
20260507010950 13 93 0.0 0.0 0.00 0.00 0.00 36 1015.6
20260507010445 13 97 0.0 0.0 0.00 0.00 0.00 35 1015.7
20260507005942 13 92 0.0 0.0 0.00 0.00 0.00 35 1015.4
20260507005439 13 93 0.0 0.0 0.00 0.00 0.00 34 1015.5
20260507004935 14 89 0.0 0.0 0.00 0.00 0.00 35 1015.5
20260507004432 14 81 0.0 1.6 0.00 0.00 0.00 34 1015.6
20260507003930 14 84 0.0 0.0 0.00 0.00 0.00 33 1015.6
20260507003425 14 121 0.0 1.6 0.00 0.00 0.00 33 1015.6
20260507002920 15 81 0.0 0.0 0.00 0.00 0.00 31 1015.6
20260507002417 15 72 0.0 3.2 0.00 0.00 0.00 32 1015.6
20260507001914 15 156 0.0 3.2 0.00 0.00 0.00 31 1015.6
20260507001410 15 77 0.0 4.8 0.00 0.00 0.00 32 1015.7
20260507000908 15 37 1.6 8.0 0.00 0.00 0.00 32 1015.6
20260507000405 15 177 3.2 8.0 0.00 0.00 0.00 31 1015.5
20260506235859 15 95 4.8 11.3 0.00 0.00 0.00 31 1015.8
20260506235356 15 319 8.0 14.5 0.00 0.00 0.00 29 1015.8
20260506234852 15 33 3.2 8.0 0.00 0.00 0.00 31 1015.6
20260506234350 15 39 3.2 4.8 0.00 0.00 0.00 29 1015.8
20260506233847 15 17 0.0 4.8 0.00 0.00 0.00 31 1015.9
20260506233343 15 133 0.0 4.8 0.00 0.00 0.00 30 1015.9
20260506232841 15 106 4.8 8.0 0.00 0.00 0.00 29 1016.0
20260506232336 15 124 3.2 8.0 0.00 0.00 0.00 30 1016.0
20260506231833 15 85 6.4 9.7 0.00 0.00 0.00 30 1016.1
20260506231331 15 219 4.8 9.7 0.00 0.00 0.00 30 1016.1
20260506230828 15 247 4.8 8.0 0.00 0.00 0.00 30 1016.0
20260506230325 15 76 0.0 11.3 0.00 0.00 0.00 31 1016.1
20260506225820 14 144 1.6 8.0 0.00 0.00 0.00 32 1016.1
20260506225318 14 35 1.6 4.8 0.00 0.00 0.00 30 1015.9
20260506224815 13 66 0.0 4.8 0.00 0.00 0.00 31 1016.1
20260506224312 14 85 3.2 3.2 0.00 0.00 0.00 31 1016.2
20260506223808 15 45 6.4 8.0 0.00 0.00 0.00 30 1016.2
20260506223303 15 79 3.2 11.3 0.00 0.00 0.00 29 1016.4
20260506222800 15 4 8.0 11.3 0.00 0.00 0.00 28 1016.5
20260506222255 15 86 8.0 12.9 0.00 0.00 0.00 28 1016.1
20260506221749 15 27 3.2 9.7 0.00 0.00 0.00 29 1016.0
20260506221246 15 69 3.2 3.2 0.00 0.00 0.00 28 1016.0
20260506220744 14 49 11.3 14.5 0.00 0.00 0.00 32 1016.5
20260506220238 15 27 3.2 14.5 0.00 0.00 0.00 28 1016.5
20260506215735 15 359 3.2 17.7 0.00 0.00 0.00 29 1016.6
20260506215231 15 343 4.8 12.9 0.00 0.00 0.00 29 1016.5
20260506214727 15 342 3.2 11.3 0.00 0.00 0.00 29 1016.4
20260506214225 15 7 11.3 14.5 0.00 0.00 0.00 27 1016.7
20260506213722 15 78 0.0 0.0 0.00 0.00 0.00 30 1016.7
20260506213220 15 86 0.0 8.0 0.00 0.00 0.00 27 1016.7
20260506212717 13 72 1.6 1.6 0.00 0.00 0.00 32 1016.7
20260506212212 14 52 3.2 8.0 0.00 0.00 0.00 32 1016.8
20260506211708 13 50 0.0 3.2 0.00 0.00 0.00 31 1017.2
20260506211204 14 8 8.0 11.3 0.00 0.00 0.00 31 1017.1
20260506210702 15 42 3.2 11.3 0.00 0.00 0.00 32 1017.0
20260506210158 15 335 12.9 17.7 0.00 0.00 0.00 30 1017.0
20260506205655 13 42 3.2 8.0 0.00 0.00 0.00 32 1017.1
20260506205150 15 5 8.0 14.5 0.00 0.00 0.00 31 1017.2
20260506204648 15 64 1.6 8.0 0.00 0.00 0.00 31 1017.3
20260506204145 13 73 1.6 3.2 0.00 0.00 0.00 33 1017.4
20260506203643 13 57 4.8 4.8 0.00 0.00 0.00 33 1017.4
20260506203140 13 320 6.4 9.7 0.00 0.00 0.00 32 1017.4
20260506202638 13 49 1.6 9.7 0.00 0.00 0.00 31 1017.6
20260506202133 14 52 6.4 9.7 0.00 0.00 0.00 31 1017.7
20260506201631 13 76 0.0 16.1 0.00 0.00 0.00 31 1017.8
20260506201127 13 83 1.6 14.5 0.00 0.00 0.00 32 1017.7
20260506200624 13 345 9.7 16.1 0.00 0.00 0.00 32 1017.9
20260506200120 12 80 0.0 11.3 0.00 0.00 0.00 32 1017.8
20260506195617 15 304 11.3 22.5 0.00 0.00 0.00 32 1018.1
20260506195113 13 93 3.2 8.0 0.00 0.00 0.00 30 1017.8
20260506194611 12 235 1.6 14.5 0.00 0.00 0.00 34 1018.1
20260506194107 13 80 0.0 12.9 0.00 0.00 0.00 33 1018.0
20260506193605 13 53 4.8 4.8 0.00 0.00 0.00 33 1018.1
20260506193102 13 43 4.8 8.0 0.00 0.00 0.00 34 1018.3
20260506192559 12 43 4.8 9.7 0.00 0.00 0.00 32 1018.2
20260506192055 13 323 4.8 11.3 0.00 0.00 0.00 32 1018.2
20260506191551 12 230 6.4 8.0 0.00 0.00 0.00 31 1018.2
20260506191047 12 30 1.6 8.0 0.00 0.00 0.00 33 1018.2
20260506190545 12 12 6.4 12.9 0.00 0.00 0.00 32 1018.3
20260506190042 13 319 8.0 11.3 0.00 0.00 0.00 31 1018.5
20260506185539 12 61 6.4 14.5 0.00 0.00 0.00 32 1018.4
20260506185035 13 132 3.2 8.0 0.00 0.00 0.00 30 1018.4
20260506184533 13 56 6.4 12.9 0.00 0.00 0.00 31 1018.4
20260506184030 13 36 6.4 12.9 0.00 0.00 0.00 32 1018.5
20260506183526 13 359 11.3 17.7 0.00 0.00 0.00 31 1018.5
20260506183023 12 345 8.0 9.7 0.00 0.00 0.00 36 1018.5
20260506182520 12 82 0.0 8.0 0.00 0.00 0.00 33 1018.4
20260506182017 12 320 6.4 11.3 0.00 0.00 0.00 31 1018.4
20260506181515 12 82 0.0 0.0 0.00 0.00 0.00 31 1018.4
20260506181012 12 47 0.0 8.0 0.00 0.00 0.00 34 1018.6
20260506180508 12 71 1.6 14.5 0.00 0.00 0.00 32 1018.5
20260506180006 12 282 6.4 9.7 0.00 0.00 0.00 33 1018.8
20260506175501 11 49 0.0 9.7 0.00 0.00 0.00 32 1018.9
20260506174958 11 82 0.0 4.8 0.00 0.00 0.00 33 1019.0
20260506174456 11 17 4.8 8.0 0.00 0.00 0.00 34 1019.1
20260506173946 10 52 1.6 4.8 0.00 0.00 0.00 33 1019.1
20260506173444 12 59 0.0 12.9 0.00 0.00 0.00 34 1019.1
20260506172941 11 8 8.0 9.7 0.00 0.00 0.00 32 1019.2
20260506172438 11 21 3.2 4.8 0.00 0.00 0.00 33 1019.4
20260506171934 9 84 0.0 1.6 0.00 0.00 0.00 33 1019.4
20260506171432 11 77 0.0 11.3 0.00 0.00 0.00 35 1019.4
20260506170930 11 23 1.6 3.2 0.00 0.00 0.00 34 1019.4
20260506170425 11 79 0.0 9.7 0.00 0.00 0.00 32 1019.6
20260506165919 10 88 0.0 8.0 0.00 0.00 0.00 37 1019.7
20260506165417 10 104 0.0 4.8 0.00 0.00 0.00 33 1019.5
20260506164913 10 73 0.0 3.2 0.00 0.00 0.00 36 1019.7
20260506164409 11 20 6.4 11.3 0.00 0.00 0.00 34 1019.7
20260506163907 11 20 3.2 12.9 0.00 0.00 0.00 37 1019.7
20260506163402 10 87 0.0 3.2 0.00 0.00 0.00 35 1019.7
20260506162857 10 20 3.2 9.7 0.00 0.00 0.00 36 1019.8
20260506162355 10 70 0.0 11.3 0.00 0.00 0.00 35 1019.9
20260506161852 10 69 3.2 3.2 0.00 0.00 0.00 37 1019.8
20260506161349 10 26 8.0 9.7 0.00 0.00 0.00 35 1019.9
20260506160842 10 95 1.6 9.7 0.00 0.00 0.00 37 1019.9
20260506160338 10 15 6.4 9.7 0.00 0.00 0.00 39 1019.8
20260506155837 10 100 0.0 8.0 0.00 0.00 0.00 38 1019.9
20260506155333 8 90 0.0 1.6 0.00 0.00 0.00 37 1019.9
20260506153445 10 45 4.8 4.8 0.00 0.00 0.00 38 1019.7
20260506152942 10 80 1.6 3.2 0.00 0.00 0.00 41 1019.8
20260506152439 10 70 1.6 8.0 0.00 0.00 0.00 41 1019.8
20260506151938 8 97 1.6 1.6 0.00 0.00 0.00 43 1019.8
20260506151435 8 91 0.0 1.6 0.00 0.00 0.00 41 1019.8
20260506150932 8 109 3.2 3.2 0.00 0.00 0.00 42 1019.8
20260506150428 8 66 4.8 8.0 0.00 0.00 0.00 45 1019.7
20260506145925 8 114 3.2 3.2 0.00 0.00 0.00 47 1019.7
20260506145421 7 77 3.2 3.2 0.00 0.00 0.00 49 1019.6
20260506144919 8 63 0.0 0.0 0.00 0.00 0.00 51 1019.6
20260506144415 8 94 1.6 1.6 0.00 0.00 0.00 51 1019.7
20260506143914 7 83 0.0 3.2 0.00 0.00 0.00 49 1019.7
20260506143410 7 91 0.0 1.6 0.00 0.00 0.00 49 1019.7
20260506142909 7 73 3.2 8.0 0.00 0.00 0.00 49 1019.7
20260506142407 7 63 4.8 4.8 0.00 0.00 0.00 52 1019.9
20260506141904 7 73 1.6 3.2 0.00 0.00 0.00 50 1019.8
20260506141402 7 81 1.6 3.2 0.00 0.00 0.00 52 1019.8
20260506140900 7 65 0.0 1.6 0.00 0.00 0.00 60 1019.9
20260506140357 7 86 0.0 0.0 0.00 0.00 0.00 60 1019.9
20260506135854 7 86 0.0 1.6 0.00 0.00 0.00 59 1019.7
20260506135351 7 87 0.0 1.6 0.00 0.00 0.00 61 1019.7
20260506134847 7 82 0.0 1.6 0.00 0.00 0.00 61 1019.6
20260506134343 7 70 3.2 3.2 0.00 0.00 0.00 62 1019.8
20260506133840 7 88 0.0 3.2 0.00 0.00 0.00 59 1019.6
20260506133337 6 78 1.6 3.2 0.00 0.00 0.00 61 1019.6
20260506132834 7 83 0.0 1.6 0.00 0.00 0.00 62 1019.6
20260506132331 7 57 4.8 4.8 0.00 0.00 0.00 61 1019.1
20260506131829 7 60 1.6 3.2 0.00 0.00 0.00 63 1019.2
20260506131325 6 87 0.0 0.0 0.00 0.00 0.00 63 1019.4
20260506130822 6 87 0.0 0.0 0.00 0.00 0.00 63 1019.1
20260506130318 6 84 0.0 0.0 0.00 0.00 0.00 63 1019.2
20260506125816 6 87 0.0 0.0 0.00 0.00 0.00 65 1019.0
20260506125315 6 105 0.0 0.0 0.00 0.00 0.00 66 1018.9
20260506124813 6 84 0.0 0.0 0.00 0.00 0.00 66 1018.8
20260506124309 6 85 0.0 0.0 0.00 0.00 0.00 66 1018.6
20260506123807 6 78 0.0 0.0 0.00 0.00 0.00 66 1018.6
20260506123306 6 80 0.0 0.0 0.00 0.00 0.00 65 1018.5
20260506122802 6 81 0.0 0.0 0.00 0.00 0.00 66 1018.6
20260506122259 6 86 0.0 0.0 0.00 0.00 0.00 66 1018.3
20260506121757 6 83 0.0 0.0 0.00 0.00 0.00 67 1018.3
20260506121254 5 87 0.0 0.0 0.00 0.00 0.00 67 1018.3
20260506120751 5 78 0.0 0.0 0.00 0.00 0.00 68 1018.1
20260506120249 5 82 0.0 0.0 0.00 0.00 0.00 68 1017.7
20260506115746 5 85 0.0 0.0 0.00 0.00 0.00 68 1017.9